Weather History for Washington, GA

Change the Weather History Date:

Saturday, November 16, 2013

  Actual Average (KDBN) Record (KDBN)
Temperature  
Mean Temperature 60 °F -  
Max Temperature 68 °F 68 °F 86 °F (1958)
Min Temperature 51 °F 38 °F 20 °F (1969)
Degree Days  
Heating Degree Days 6    
Growing Degree Days 10 (Base 50)    
Moisture  
Dew Point 56 °F    
Average Humidity 95    
Maximum Humidity 100    
Minimum Humidity 64    
Precipitation  
Precipitation 0.00 in - - ()
Sea Level Pressure  
Sea Level Pressure 30.20 in    
Wind  
Wind Speed 1 mph (ENE)    
Max Wind Speed 7 mph    
Max Gust Speed -    
Visibility 7 miles    
Events Fog    
Averages and records for this station are not official NWS values.
T = Trace of Precipitation, MM = Missing Value Source: NWS Daily Summary

Daily Weather History Graph

Daily Weather History Graph

Search for Another Location

Airport:

Trip Planner

Search our weather history database for the weather conditions in past years. The results will help you decide how hot, cold, wet, or windy it might be!

Date:

Astronomy

Nov. 16, 2013 Rise Set
Actual Time 7:04 AM EST 5:27 PM EST
Civil Twilight 6:37 AM EST 5:53 PM EST
Nautical Twilight 6:07 AM EST 6:24 PM EST
Astronomical Twilight 5:38 AM EST 6:53 PM EST
Moon 5:00 PM EST (11/16) 6:02 AM EST (11/16)
Length of Visible Light 11h 16m
Length of Day
10h 22m
Waxing Gibbous, 99% of the Moon is Illuminated
Nov 16
Waxing Gibbous
Nov 17
Full
Nov 25
Last Quarter
Dec 2
New
Dec 9
First Quarter

Hourly Weather History & Observations

Time (EST) Temp. Dew Point Humidity Pressure Visibility Wind Dir Wind Speed Gust Speed Precip Events Conditions
12:15 AM 53.6 °F 53.6 °F 100% 30.20 in 5.0 mi Calm Calm - N/A   Mostly Cloudy
12:35 AM 53.6 °F 53.6 °F 100% 30.20 in 7.0 mi Calm Calm - N/A   Mostly Cloudy
12:55 AM 51.8 °F 51.8 °F 100% 30.21 in 7.0 mi Calm Calm - N/A   Mostly Cloudy
1:15 AM 51.8 °F 51.8 °F 100% 30.21 in 7.0 mi Calm Calm - N/A   Overcast
1:35 AM 51.8 °F 51.8 °F 100% 30.21 in 7.0 mi Calm Calm - N/A   Overcast
1:55 AM 51.8 °F 51.8 °F 100% 30.20 in 5.0 mi Calm Calm - N/A   Overcast
2:15 AM 51.8 °F 51.8 °F 100% 30.20 in 5.0 mi Calm Calm - N/A   Overcast
2:35 AM 51.8 °F 51.8 °F 100% 30.21 in 5.0 mi Calm Calm - N/A   Overcast
2:55 AM 51.8 °F 51.8 °F 100% 30.21 in 5.0 mi Calm Calm - N/A   Overcast
3:15 AM 51.8 °F 51.8 °F 100% 30.21 in 5.0 mi Calm Calm - N/A   Overcast
3:35 AM 51.8 °F 51.8 °F 100% 30.20 in 5.0 mi Calm Calm - N/A   Overcast
3:55 AM 51.8 °F 51.8 °F 100% 30.20 in 4.0 mi Calm Calm - N/A   Overcast
4:15 AM 51.8 °F 51.8 °F 100% 30.21 in 4.0 mi Calm Calm - N/A   Overcast
4:35 AM 51.8 °F 51.8 °F 100% 30.20 in 5.0 mi Calm Calm - N/A   Overcast
4:55 AM 51.8 °F 51.8 °F 100% 30.20 in 5.0 mi Calm Calm - N/A   Overcast
5:15 AM 51.8 °F 51.8 °F 100% 30.19 in 4.0 mi Calm Calm - N/A   Overcast
5:35 AM 51.8 °F 51.8 °F 100% 30.19 in 3.0 mi Calm Calm - N/A   Overcast
5:55 AM 51.8 °F 51.8 °F 100% 30.19 in 3.0 mi Calm Calm - N/A   Overcast
6:15 AM 51.8 °F 51.8 °F 100% 30.19 in 3.0 mi Calm Calm - N/A   Overcast
6:35 AM 51.8 °F 51.8 °F 100% 30.20 in 3.0 mi Calm Calm - N/A   Overcast
6:55 AM 51.8 °F 51.8 °F 100% 30.20 in 2.0 mi Calm Calm - N/A   Overcast
7:15 AM 51.8 °F 51.8 °F 100% 30.21 in 0.8 mi Calm Calm - N/A   Overcast
7:35 AM 51.8 °F 51.8 °F 100% 30.22 in 0.8 mi Calm Calm - N/A   Overcast
7:55 AM 53.6 °F 53.6 °F 100% 30.22 in 0.5 mi Calm Calm - N/A Fog Fog
8:15 AM 53.6 °F 53.6 °F 100% 30.23 in 0.5 mi Calm Calm - N/A Fog Fog
8:35 AM 53.6 °F 53.6 °F 100% 30.23 in 0.5 mi Calm Calm - N/A Fog Fog
8:55 AM 53.6 °F 53.6 °F 100% 30.25 in 0.8 mi Calm Calm - N/A   Overcast
9:15 AM 53.6 °F 53.6 °F 100% 30.24 in 0.8 mi NE 3.5 mph - N/A   Overcast
9:35 AM 53.6 °F 53.6 °F 100% 30.26 in 0.8 mi East 3.5 mph - N/A   Overcast
9:55 AM 53.6 °F 53.6 °F 100% 30.26 in 0.8 mi ENE 3.5 mph - N/A   Overcast
10:15 AM 53.6 °F 53.6 °F 100% 30.26 in 1.8 mi ENE 3.5 mph - N/A   Overcast
10:35 AM 53.6 °F 53.6 °F 100% 30.26 in 4.0 mi Calm Calm - N/A   Overcast
10:55 AM 55.4 °F 55.4 °F 100% 30.26 in 5.0 mi East 3.5 mph - N/A   Overcast
11:15 AM 59.0 °F 59.0 °F 100% 30.25 in 5.0 mi East 3.5 mph - N/A   Overcast
11:35 AM 59.0 °F 59.0 °F 100% 30.24 in 7.0 mi ENE 4.6 mph - N/A   Overcast
11:55 AM 59.0 °F 59.0 °F 100% 30.23 in 7.0 mi Calm Calm - N/A   Overcast
12:15 PM 62.6 °F 60.8 °F 94% 30.21 in 10.0 mi Calm Calm - N/A   Overcast
12:35 PM 62.6 °F 59.0 °F 88% 30.22 in 10.0 mi Calm Calm - N/A   Overcast
12:55 PM 62.6 °F 59.0 °F 88% 30.21 in 10.0 mi Calm Calm - N/A   Mostly Cloudy
1:15 PM 64.4 °F 59.0 °F 83% 30.21 in 10.0 mi Calm Calm - N/A   Mostly Cloudy
1:35 PM 64.4 °F 59.0 °F 83% 30.19 in 10.0 mi East 3.5 mph - N/A   Mostly Cloudy
1:55 PM 66.2 °F 59.0 °F 78% 30.19 in 10.0 mi Calm Calm - N/A   Mostly Cloudy
2:15 PM 66.2 °F 59.0 °F 78% 30.17 in 10.0 mi ENE 3.5 mph - N/A   Mostly Cloudy
2:35 PM 68.0 °F 57.2 °F 68% 30.17 in 10.0 mi ENE 4.6 mph - N/A   Overcast
2:55 PM 68.0 °F 57.2 °F 68% 30.16 in 10.0 mi East 4.6 mph - N/A   Mostly Cloudy
3:15 PM 68.0 °F 57.2 °F 68% 30.16 in 10.0 mi East 5.8 mph - N/A   Scattered Clouds
3:35 PM 68.0 °F 55.4 °F 64% 30.16 in 10.0 mi East 4.6 mph - N/A   Scattered Clouds
3:55 PM 68.0 °F 59.0 °F 73% 30.16 in 10.0 mi ENE 5.8 mph - N/A   Scattered Clouds
4:15 PM 66.2 °F 59.0 °F 78% 30.16 in 10.0 mi ENE 3.5 mph - N/A   Mostly Cloudy
4:35 PM 66.2 °F 59.0 °F 78% 30.16 in 10.0 mi Calm Calm - N/A   Mostly Cloudy
4:55 PM 64.4 °F 59.0 °F 83% 30.16 in 10.0 mi NE 3.5 mph - N/A   Mostly Cloudy
5:15 PM 64.4 °F 59.0 °F 83% 30.17 in 10.0 mi Calm Calm - N/A   Mostly Cloudy
5:35 PM 64.4 °F 60.8 °F 88% 30.17 in 10.0 mi NE 3.5 mph - N/A   Mostly Cloudy
5:55 PM 64.4 °F 60.8 °F 88% 30.17 in 10.0 mi Calm Calm - N/A   Mostly Cloudy
6:15 PM 62.6 °F 60.8 °F 94% 30.17 in 10.0 mi Calm Calm - N/A   Mostly Cloudy
6:35 PM 62.6 °F 60.8 °F 94% 30.18 in 10.0 mi NNE 3.5 mph - N/A   Scattered Clouds
6:55 PM 60.8 °F 60.8 °F 100% 30.18 in 10.0 mi Calm Calm - N/A   Scattered Clouds
7:15 PM 59.0 °F 59.0 °F 100% 30.19 in 10.0 mi NE 3.5 mph - N/A   Clear
7:35 PM 59.0 °F 59.0 °F 100% 30.18 in 10.0 mi East 3.5 mph - N/A   Clear
7:55 PM 59.0 °F 59.0 °F 100% 30.19 in 10.0 mi East 3.5 mph - N/A   Clear
8:15 PM 57.2 °F 57.2 °F 100% 30.19 in 10.0 mi Calm Calm - N/A   Clear
8:35 PM 55.4 °F 55.4 °F 100% 30.20 in 7.0 mi Calm Calm - N/A   Scattered Clouds
8:55 PM 53.6 °F 53.6 °F 100% 30.19 in 7.0 mi East 4.6 mph - N/A   Scattered Clouds
9:15 PM 55.4 °F 55.4 °F 100% 30.19 in 10.0 mi East 3.5 mph - N/A   Scattered Clouds
9:35 PM 59.0 °F 59.0 °F 100% 30.20 in 10.0 mi Calm Calm - N/A   Scattered Clouds
9:55 PM 59.0 °F 59.0 °F 100% 30.20 in 10.0 mi NE 4.6 mph - N/A   Scattered Clouds
10:15 PM 55.4 °F 55.4 °F 100% 30.19 in 10.0 mi East 5.8 mph - N/A   Scattered Clouds
10:35 PM 59.0 °F 59.0 °F 100% 30.20 in 10.0 mi East 3.5 mph - N/A   Mostly Cloudy
10:55 PM 59.0 °F 59.0 °F 100% 30.20 in 10.0 mi East 4.6 mph - N/A   Mostly Cloudy
11:15 PM 59.0 °F 59.0 °F 100% 30.19 in 10.0 mi East 6.9 mph - N/A   Mostly Cloudy
11:35 PM 59.0 °F 59.0 °F 100% 30.19 in 10.0 mi East 6.9 mph - N/A   Mostly Cloudy
11:55 PM 59.0 °F 59.0 °F 100% 30.18 in 10.0 mi East 5.8 mph - N/A   Mostly Cloudy